Voltar ao catálogo

COSMOS 252 DEB

AtivoLEO
NORAD 3557·DEBRIS·🇷🇺 Russia

Lançado Nov 1, 1968 de Baikonur Cosmodrome

Loading…

Próximas Passagens (próximas 24 horas)

TLE

AtualizadoSource: Space-Track

Época: Sep 14, 2026, 07:49 UTC

1 03557U 68097K   26257.32618385  .00000218  00000-0  12456-3 0  9990
2 03557  62.3194  29.0716 0811603 270.6585  80.1593 13.24423367766015

Acompanhe COSMOS 252 DEB em tempo real com AllMySat

Download on the App Store